Flag for Sweden Weather past 2 weeks in Stockholm, Sweden

Now
49 °F

Cool.


Feels Like: 49 °F
Forecast: 38 / 58 °F
Wind: 1 mph from Southeast

Location: Stockholm / Bromma


UV Index: 0 (Low)

Visibility: 18 mi


Pressure: 30.26 "Hg

Humidity: 65%

Dew point: 37 °F

Location of StockholmLocation

Historic Weather in Stockholm

°F

Stockholm temperature yesterday

Maximum temperature yesterday: 51 °F (at 6:00 PM)
Minimum temperature yesterday: 42 °F (at 10:00 PM)
Average temperature yesterday: 46 °F

Past Weeks' High & Low Weather Summary

 TemperatureHumidityPressure
High60 °F (Apr 19, 4:00 PM)100% (Apr 19, 8:00 AM)30.34 "Hg (Apr 19, 8:00 AM)
Low29 °F (Apr 5, 6:00 AM)27% (Apr 16, 5:00 PM)29.29 "Hg (Apr 14, 2:00 AM)
Average43 °F71%29.89 "Hg
* Reported Apr 4 8:00 PM — Apr 19 8:00 PM, Stockholm, Weather by CustomWeather, © 2014

Note: Actual official high and low records may vary slightly from our data, if they occured in-between our weather recording intervals... More about our weather records

Advertising

Historic Weather Conditions — Data for Previous 24 hours

 ConditionsComfort  
Time TempWeatherWind HumidityBarometerVisibility
8:00 PM
Apr 19
54 °FCool.3 mph56%30.25 "Hg31 mi
7:00 PM59 °FRefreshingly cool.2 mph50%30.24 "Hg11 mi
6:00 PM59 °FRefreshingly cool.2 mph48%30.24 "Hg25 mi
5:00 PM60 °FRefreshingly cool.2 mph48%30.26 "Hg22 mi
4:00 PM60 °FRefreshingly cool.3 mph47%30.27 "Hg22 mi
3:00 PM57 °FRefreshingly cool.3 mph48%30.28 "Hg22 mi
2:00 PM56 °FRefreshingly cool.2 mph50%30.30 "Hg22 mi
1:00 PM56 °FRefreshingly cool.N/A54%30.31 "Hg19 mi
12:00 PM53 °FCool.N/A60%30.31 "Hg19 mi
11:00 AM50 °FCool.1 mph82%30.32 "Hg18 mi
10:00 AM43 °FQuite cool.No wind100%30.32 "Hg6 mi
9:00 AM41 °FDuststorm.No wind100%30.32 "Hg0 mi
8:00 AM38 °FDuststorm.No wind100%30.30 "Hg0 mi
7:00 AM38 °FDuststorm.1 mph99%30.29 "Hg0 mi
6:00 AM38 °FDuststorm.1 mph99%30.28 "Hg0 mi
5:00 AM39 °FDuststorm.1 mph99%30.26 "Hg0 mi
4:00 AM40 °FChilly.1 mph98%30.26 "Hg1 mi
3:00 AM39 °FFog.1 mph97%30.25 "Hg2 mi
2:00 AM39 °FChilly.No wind97%30.24 "Hg9 mi
1:00 AM41 °FQuite cool.1 mph96%30.22 "Hg14 mi
12:00 AM42 °FQuite cool.2 mph92%30.21 "Hg22 mi
10:00 PM
Apr 18
42 °FQuite cool.1 mph92%30.16 "Hg15 mi
9:00 PM44 °FQuite cool.No wind86%30.13 "Hg19 mi
Weather by CustomWeather, © 2014

See weather overview